Погода в Калейкине

Россия / Республика Татарстан     54°55′56″N   52°11′30″E
темп.,
°C
ветер,
м/с
пор.,
м/с
влажн.,
%
обл.,
%
осадки,
мм/ч
давл.,
гПа
погр.,
м
15 мая, сб
сб1500:00+18ю410555 0.0 1021171
03:00+16ю37545 0.0 1021123
06:00+19ююз412536 0.0 1021293
09:00+25ююз610345 0.0 1021574
12:00+28ююз782886 0.0 10211096
15:00+29ююз683276 0.0 10201341
18:00+24ю49481 0.0 1020171
21:00+20ю410481 0.0 1020133
16 мая, вс
вс1600:00+18ю33525 0.0 102045
03:00+17ю33535 0.0 102030
06:00+20ююв39550 0.0 1020222
09:00+26ююз69380 0.0 1020657
12:00+29ююз68295 0.0 10192406
15:00+29юз68306 0.0 10193224
18:00+26ю33445 0.0 101838
21:00+21ю2251100 0.0 101812
17 мая, пн
пн1700:00+19ююз22566 0.0 101811
03:00+17ю335941 0.0 101921
06:00+21юз3115494 0.0 1020356
09:00+26юз584094 0.0 1020627
12:00+29юз673381 0.0 10191327
15:00+29зюз563158 0.0 10193222
18:00+26юз2247100 0.0 101827
21:00+19зюз2257100 0.0 102029
18 мая, вт
вт1800:00+18ююз1154100 0.0 101911
03:00+18ююз115599 0.0 101911
06:00+20ююз125947 0.0 101969
09:00+26юз23405 0.0 1018732
12:00+29ююз33346 0.0 10182041
15:00+29зюз4329100 0.0 10172862
18:00+26з1141100 0.0 101711
21:00+21в2243100 0.0 101711
19 мая, ср
ср1900:00+19юв2256100 0.0 101711
03:00+18ююв1157100 0.0 101711
06:00+21юв225765 0.0 101777
09:00+27юв3439100 0.0 1016676
12:00+29юв552927 0.0 10152903
15:00+29юв453581 0.0 10142322
18:00+22в37605 0.0 1014172
21:00+19юв7176319 0.1 1015509